Regional Weather Roundup
Issued by NWS Charleston, SC

Current Version | Previous Version | Text Only | Print | Product List | Glossary Off
Versions: 1 2 3 4 5 6 7 8 9 10 11 12 13 14 15 16 17 18 19 20 21 22 23 24 25 26 27 28 29 30 31 32 33 34 35 36 37 38 39 40 41 42 43 44 45 46 47 48 49 50
000 ASUS42 KCHS 272028 RWRCHS REGIONAL WEATHER ROUNDUP NATIONAL WEATHER SERVICE CHARLESTON SC 400 PM EDT SAT AUG 27 2016 NOTE: "FAIR" INDICATES FEW OR NO CLOUDS BELOW 12,000 FEET WITH NO SIGNIFICANT WEATHER AND/OR OBSTRUCTIONS TO VISIBILITY. NOT ALL STATIONS ARE QUALITY CONTROLLED. USE DATA WITH CAUTION... ESPECIALLY DEWPOINT OBSERVATIONS. SCZ027-030-031-034>040-042>050-272100- ...SOUTHEAST SOUTH CAROLINA... CITY SKY/WX TMP DP RH WIND PRES REMARKS N CHARLESTON MOSUNNY 91 68 46 SE14 30.06F HX 95 WATERFRONT PRK N/A 88 76 67 E8 30.06S HX 99 MOUNT PLEASANT FAIR 86 73 66 SE3 30.07S HX 93 JOHNS ISLAND FAIR 86 75 70 E12 30.06F HX 95 PINOPOLIS N/A 90 72 55 VRB2 29.99F HX 96 MONCKS CORNER FAIR 90 66 45 SE7 30.05F HX 92 SUMMERVILLE FAIR 95 64 36 SE9 30.07F HX 97 BEAUFORT MCAS MOSUNNY 88 71 57 E10 30.05F HX 94 BEAUFORT ARPT FAIR 88 73 62 E7 30.05F HX 96 HILTON HEAD IS MOSUNNY 91 75 59 NE9G18 30.06F HX 102 WALTERBORO CLEAR 95 63 34 E10G17 30.06F HX 96 ALLENDALE FAIR 95 66 38 VRB5G15 30.04F HX 98 ...SOUTHERN MIDLANDS AND PEE DEE... CITY SKY/WX TMP DP RH WIND PRES REMARKS GEORGETOWN FAIR 88 70 55 E9 30.08F HX 92 KINGSTREE FAIR 95 64 36 E14 30.05F HX 97 ORANGEBURG SUNNY 93 70 46 E8 30.07F HX 99 BARNWELL NOT AVBL AIKEN FAIR 93 64 38 E15G21 30.10S HX 95 MANNING FAIR 91 70 49 SE5 30.05F HX 97 COLUMBIA MOSUNNY 96 70 42 SE10 30.05F HX 102 SUMTER MOSUNNY 94 70 45 E8 30.04F HX 100 FLORENCE MOSUNNY 96 69 41 SE9G17 30.05F HX 102 MYRTLE BEACH MOSUNNY 90 70 51 SE10 30.00F HX 95 N MYRTLE BEACH SUNNY 87 75 67 SE10 30.06F HX 96 $$ GAZ063-065-086>088-099>101-113>116-118-119-134>141-150-272100- ...SOUTHEAST GEORGIA... CITY SKY/WX TMP DP RH WIND PRES REMARKS SAVANNAH ARPT MOSUNNY 92 70 48 E16 30.04F HX 97 HUNTER AAF MOSUNNY 88 78 72 E15 30.02F HX 102 FORT STEWART MOSUNNY 90 72 55 E13 30.00F HX 96 STATESBORO SUNNY 96 61 31 E10G16 30.04F HX 96 SYLVANIA NOT AVBL CLAXTON MOCLDY 92 70 47 NE12 30.02F HX 98 ...CSRA...CENTRAL AND FAR SOUTHEAST GEORGIA... CITY SKY/WX TMP DP RH WIND PRES REMARKS THOMSON MOSUNNY 97 70 41 MISG 30.10F HX 103 AUGUSTA-BUSH MOSUNNY 97 67 37 E14G20 30.04F HX 101 AUGUSTA-DANIEL SUNNY 96 67 38 SE14G21 30.06F HX 100 SWAINSBORO FAIR 95 59 30 SE13 30.04F HX 94 VIDALIA MOSUNNY 93 72 49 SE8 30.03F HX 100 EASTMAN FAIR 98 22 6 E7 30.04F HX 91 HAZLEHURST FAIR 94 67 40 E12 30.01F HX 98 ALMA SUNNY 92 65 40 E12 30.01F HX 94 WAYCROSS N/A 96 74 49 E15G21 30.00F HX 106 JESUP MOCLDY 90 79 70 E8G17 30.01F HX 105 BAXLEY FAIR 93 73 52 E9 30.01F HX 102 BRUNSWICK CLOUDY 86 79 79 NE15 30.02F HX 99 SAINT SIMONS RAIN 80 76 87 E9 30.02F FOG $$ SCZ027-028-034-036>038-045-046-048>050-GAZ119-141-272100- ...LAKE AND SUPPLEMENTAL COASTAL OBSERVATIONS... STATION/POSITION TIME TEMP WIND PRES WAVE SWELL AIR SEA DIR/SP/G HT/PER HT/PER/DIR (UTC) (F) (DEG/KT/KT) (MB) (FT/S) (FT/S/D) WINYAH BAY 1900 83 80/ 10 1018.0S LAKE MURRAY 1900 91 100/ 9/ 15 1017.6F ACE BASIN NERRS 1900 90 90/ 3 1018.0F FORT PULASKI 2000 84 86 60/ 16/ 19 1017.8F SAPELO ISLAND 2000 89 60/ 13 1017.0S $$ ANZ835-935-AMZ111-154-330-350-352-354-370-450-454-472-272100- ...C-MAN AND BUOY OBSERVATIONS... STATION/POSITION TIME TEMP WIND PRES WAVE SWELL AIR SEA DIR/SP/G HT/PER HT/PER/DIR (UTC) (F) (DEG/KT/KT) (MB) (FT/S) (FT/S/D) BUOY 41004 1950 83 85 70/ 12/ 16 1017.2F 4/10 3/130/10 BUOY 41008 1950 84 85 80/ 16/ 17 1016.2F 5/10 3/140/10 FOLLY BEACH CMAN 2000 84 60/ 11/ 13 1018.5F CAPERS NEARSHORE 2008 83 85 70/ 10/ 14 1017.9F FRIPP NEARSHORE 2008 84 86 70/ 14/ 17 1016.8F STATION/POSITION TIME TEMP WIND PRES WAVE SWELL AIR SEA DIR/SP/G HT/PER HT/PER/DIR (UTC) (F) (DEG/KT/KT) (MB) (FT/S) (FT/S/D) 5E ST. MARYS GA 2001 85 N/A 6/10 2/110/11 FRYING PAN BUOY 2000 83 85 60/ 10/ 14 1017.8F BUOY 41025 1850 83 85 40/ 6/ 8 1019.0 3/10 3/110/10 CAPE LOOKOUT NC 2000 83 100/ 10/ 11 1018.2F BUOY 41002 1950 83 84 60/ 16/ 17 1016.0F 4/ 8 3/120/ 8 BUOY 41010 NOT AVBL ST AUGUSTINE FL 2000 82 85 100/ 9/ 10 1015.9F $$

USA.gov is the U.S. government's official web portal to all federal, state and local government web resources and services.